Wind_Speed
74 69 63 65 67 67 69 67 62 67 69 66 66 67 66 65 66 68 64 63 64 65 67 67 67 67 68 67 69 70 70 71 72 71 71 73 74 75 78 79 79 83 83 80
83 78 67 67 70 71 72 68 65 64 69 67 70 69 71 66 65 66 67 71 70 71 69 69 72 72 72 72 73 74 75 76 77 77 78 78 79 80 78 80 83 82 81 84
83 78 73 74 73 75 74 72 73 70 69 70 70 63 73 68 67 72 74 74 75 77 77 74 74 76 79 80 80 79 80 81 81 80 81 82 83 84 83 82 81 83 84 84
88 84 79 77 76 76 75 77 75 74 71 73 80 68 74 74 74 79 84 85 84 82 81 80 80 83 83 84 86 85 85 85 84 81 81 83 85 85 82 77 78 80 81 83
90 86 83 82 81 81 79 79 80 78 75 77 82 81 74 83 82 85 87 89 87 87 87 88 89 85 86 90 91 89 88 86 84 82 84 88 90 86 80 75 74 77 81 84
89 87 87 86 86 87 88 88 88 88 88 84 87 93 74 83 86 86 87 89 90 91 91 91 93 93 95 95 95 94 89 81 81 83 89 92 89 83 77 74 73 71 71 73
94 92 90 91 90 92 93 95 93 94 93 91 90 88 83 85 92 94 95 95 94 95 96 98 98 98 98 98 97 91 82 81 82 87 91 90 85 78 72 70 66 64 65 65
100 96 94 94 94 94 96 93 98 100 95 94 90 90 91 89 91 94 96 98 99 100 100 101 101 100 100 97 89 80 83 84 84 87 87 83 78 71 68 61 60 60 60 58
100 98 96 97 97 101 101 102 103 102 97 98 96 100 96 97 98 100 101 101 104 103 101 100 98 95 91 85 81 82 85 84 83 84 81 77 71 64 61 56 56 54 54 53
102 100 101 103 105 105 104 99 98 100 101 101 95 91 92 95 98 99 100 97 99 97 93 91 87 82 81 81 80 82 82 81 79 77 73 68 59 56 56 51 49 49 49 48
104 99 98 96 97 100 97 93 89 92 92 93 91 88 86 85 83 85 86 86 87 83 82 80 79 77 75 75 75 75 75 75 69 63 57 50 52 52 49 47 44 42 40 42
101 93 88 90 91 94 86 83 83 84 83 82 83 79 79 78 77 77 78 80 79 79 79 75 72 72 72 70 68 61 54 49 46 47 45 44 51 48 43 40 35 31 33 37
88 84 83 82 84 87 83 79 77 79 81 79 79 77 76 74 70 68 67 65 65 64 62 63 62 58 54 45 39 37 33 36 41 41 44 42 47 44 39 36 32 29 28 26
78 75 78 76 79 75 71 73 74 72 69 67 62 62 62 56 50 49 48 47 47 49 48 45 40 35 33 31 29 29 34 38 40 41 45 43 43 42 37 34 31 29 24 20
72 74 73 66 65 65 62 63 63 61 58 49 49 40 48 41 39 39 40 41 38 35 32 29 25 24 23 23 28 31 36 40 42 42 42 45 44 39 36 33 32 29 26 20
70 61 54 50 54 53 53 54 51 42 40 31 33 39 33 30 31 32 30 27 24 22 22 20 19 21 25 28 30 36 39 41 43 42 42 43 44 43 38 35 32 30 29 25
51 47 44 45 49 46 46 38 33 29 25 24 22 23 22 23 23 17 17 18 16 15 17 18 18 23 28 32 36 38 41 45 45 46 45 48 46 43 44 39 37 33 29 28
45 42 38 41 39 38 36 30 23 19 14 11 11 12 7 7 7 12 13 11 13 13 13 19 25 30 35 38 41 43 46 47 48 50 53 53 50 47 43 43 39 39 34 30
38 34 29 32 30 32 28 17 12 8 7 7 7 5 6 7 9 10 8 9 12 18 24 29 33 37 39 42 45 47 50 52 54 56 58 57 54 50 47 43 42 39 40 36
29 23 23 26 27 22 15 13 11 13 11 10 9 10 10 11 9 10 14 16 20 26 29 33 37 41 45 49 52 56 59 60 61 61 61 59 56 54 52 50 43 44 41 41
23 19 23 23 23 16 14 16 18 16 15 14 13 14 14 12 14 18 20 22 25 29 32 38 44 50 55 58 60 60 62 63 63 62 61 61 60 58 54 50 46 44 46 46
18 21 23 21 20 14 20 20 19 19 17 16 16 16 17 19 22 25 26 28 30 34 40 46 52 56 59 61 60 57 55 54 54 55 55 55 55 54 53 51 50 47 48 50
20 24 22 20 19 20 24 23 21 18 16 14 14 14 19 22 22 24 27 31 35 38 45 51 54 58 59 56 53 53 52 51 50 51 53 53 54 54 54 52 52 53 52 53
23 24 23 22 24 27 29 28 23 21 16 15 15 19 22 22 24 27 29 35 39 41 46 52 54 57 54 50 48 48 45 43 42 42 44 48 52 54 54 54 54 55 55 57
23 23 26 26 24 24 22 25 20 19 19 20 21 22 21 23 26 29 33 36 39 42 45 50 53 54 53 48 43 41 39 38 36 37 39 41 45 50 54 55 55 56 58 58
23 28 26 24 23 21 21 21 20 19 21 22 20 21 24 28 30 33 35 35 38 40 45 48 49 50 51 50 45 40 38 35 34 33 34 37 40 43 48 54 57 58 59 60
Wind_Direction
298 300 294 294 286 285 284 285 282 279 274 272 272 273 274 277 276 277 279 282 285 288 288 289 291 291 290 291 294 296 293 293 292 289 284 283 280 278 274 269 267 262 261 262
295 298 292 289 286 284 284 284 284 281 279 275 271 271 272 274 273 276 277 281 282 284 286 286 289 289 288 291 290 290 290 289 288 286 285 282 281 280 278 276 273 270 265 262
293 292 291 290 288 283 283 285 283 282 278 277 274 272 274 272 273 276 276 278 281 282 284 286 287 288 289 290 290 289 289 287 287 284 285 283 283 282 281 280 276 273 271 268
290 289 288 288 282 281 281 281 282 281 278 274 272 267 272 270 274 277 277 279 281 282 283 284 285 286 287 288 289 289 288 286 284 284 284 285 285 287 285 280 276 273 270 268
286 284 284 285 282 280 279 278 279 278 273 270 269 268 268 273 272 274 278 280 281 281 282 282 284 285 285 287 289 286 284 282 282 282 285 285 286 287 284 282 280 274 273 272
280 282 280 281 279 277 278 276 275 276 277 277 273 272 272 275 274 277 278 278 278 279 280 282 283 284 285 285 286 285 282 281 281 282 284 284 287 286 286 285 280 276 273 270
281 281 279 278 277 278 277 274 276 276 276 276 273 273 275 273 272 275 274 274 275 277 278 280 281 283 284 284 284 282 279 280 282 283 283 285 286 285 286 285 282 278 274 273
281 280 281 281 280 279 278 279 278 277 277 275 276 275 276 274 273 273 272 274 276 277 278 278 279 281 281 281 279 278 279 280 281 283 285 286 286 288 289 286 283 281 278 276
281 281 280 279 279 280 280 278 280 278 277 276 277 276 273 274 274 273 273 273 273 275 276 277 278 278 277 274 272 274 276 277 279 283 286 286 288 290 286 285 284 283 281 280
278 278 278 277 278 279 280 279 278 277 275 276 276 274 274 272 272 272 272 272 273 273 275 276 275 274 273 271 271 273 275 277 280 284 285 286 290 286 286 285 285 281 278 277
279 280 278 280 282 281 277 277 277 276 280 279 277 276 273 273 271 270 269 270 270 271 271 271 272 271 269 270 272 274 276 279 282 281 281 289 289 290 289 287 282 279 279 279
280 282 280 279 280 278 277 274 275 277 277 277 276 274 274 272 271 270 270 269 270 269 269 271 271 271 273 274 274 275 274 278 276 277 285 288 293 292 289 285 279 275 276 280
280 280 279 277 276 276 278 278 277 273 272 273 273 273 272 273 275 275 275 273 272 271 270 271 272 272 272 271 267 268 268 268 271 281 286 289 299 297 294 287 284 276 278 289
277 277 274 273 276 278 277 276 273 273 274 272 273 269 272 275 277 275 273 271 269 269 272 273 271 269 262 258 259 259 265 269 274 284 286 291 299 301 299 291 283 279 279 284
275 271 275 278 275 274 273 272 274 273 274 275 269 273 269 274 273 270 268 267 269 269 264 259 255 255 250 248 258 262 267 276 279 283 284 296 298 301 301 293 280 277 276 279
272 278 278 276 272 273 271 272 274 276 273 267 257 261 271 271 267 266 265 264 257 249 241 238 234 238 247 258 260 269 276 280 279 282 289 293 300 300 301 296 280 274 270 265
279 275 275 272 273 276 271 273 274 265 255 255 262 270 275 270 264 257 244 232 225 225 222 230 250 259 259 264 270 272 274 276 279 285 288 292 295 297 299 298 289 274 266 263
272 273 273 272 275 271 275 272 252 249 253 263 260 258 253 243 217 209 209 195 208 230 250 257 259 262 266 271 270 273 275 279 284 287 289 289 290 290 292 293 288 276 269 263
268 271 271 267 263 260 256 241 236 234 225 206 188 170 171 176 186 195 196 215 240 249 255 261 265 268 270 274 278 282 283 284 285 286 285 286 286 286 285 285 283 274 268 264
265 261 262 253 244 241 232 216 191 178 175 167 166 178 190 199 198 225 240 248 254 260 267 272 277 281 286 287 287 287 285 285 284 283 283 283 283 282 281 281 275 270 263 261
243 251 243 238 236 221 205 189 181 174 173 181 194 208 218 224 244 248 256 264 269 275 284 287 287 288 288 288 289 291 290 288 285 281 279 279 278 277 275 274 269 261 258 256
234 239 234 225 223 193 188 179 179 182 189 204 218 231 251 251 254 260 271 276 283 289 290 291 290 290 294 298 298 295 291 286 282 279 276 274 272 271 270 267 265 259 253 250
226 227 219 206 199 186 181 182 190 194 198 227 240 240 248 254 267 274 281 289 290 292 296 293 296 301 304 307 306 302 298 291 284 277 272 268 267 266 265 264 261 258 255 250
223 220 207 196 192 182 186 196 203 210 221 244 239 251 257 269 274 283 290 291 297 295 298 300 304 308 313 313 308 308 303 297 291 284 276 269 264 262 262 261 260 259 257 255
209 199 186 186 188 188 201 211 216 222 237 250 252 256 268 279 282 285 293 297 298 302 306 308 310 313 316 318 317 316 312 304 298 292 285 277 270 265 263 263 262 260 258 257
182 176 176 175 174 187 198 205 217 231 241 249 255 271 277 281 284 292 295 300 307 310 312 313 314 316 319 322 323 324 322 316 308 299 293 287 279 270 263 261 261 260 259 258
Height
10649 10649 10646 10645 10644 10643 10642 10641 10639 10635 10634 10640 10639 10640 10639 10638 10635 10631 10627 10622 10618 10614 10611 10608 10607 10605 10602 10601 10600 10599 10597 10595 10591 10588 10586 10582 10578 10576 10574 10573 10572 10572 10571 10569
10633 10632 10631 10628 10627 10626 10625 10625 10624 10622 10618 10623 10621 10626 10620 10626 10617 10615 10610 10605 10601 10597 10594 10592 10589 10587 10585 10584 10582 10581 10579 10576 10573 10569 10565 10562 10559 10554 10551 10549 10546 10545 10546 10546
10615 10613 10614 10611 10610 10608 10607 10607 10606 10607 10605 10604 10603 10614 10600 10605 10601 10596 10589 10585 10582 10579 10577 10576 10574 10571 10569 10566 10565 10563 10560 10556 10552 10548 10544 10539 10536 10533 10530 10525 10521 10516 10516 10516
10598 10594 10594 10594 10593 10591 10591 10588 10587 10588 10587 10589 10581 10597 10581 10583 10582 10573 10568 10564 10562 10559 10557 10556 10554 10552 10550 10547 10545 10542 10538 10534 10530 10527 10523 10519 10515 10510 10504 10501 10496 10491 10490 10488
10577 10577 10575 10573 10572 10572 10571 10570 10568 10567 10567 10569 10563 10562 10579 10559 10561 10556 10548 10541 10540 10538 10536 10535 10533 10531 10529 10527 10525 10521 10516 10512 10509 10505 10501 10496 10491 10487 10483 10478 10474 10468 10462 10457
10556 10560 10556 10554 10552 10550 10549 10548 10547 10544 10542 10547 10540 10530 10566 10543 10539 10531 10526 10521 10518 10515 10513 10511 10510 10508 10506 10504 10502 10498 10494 10490 10487 10484 10478 10473 10469 10463 10459 10456 10450 10444 10440 10437
10541 10537 10534 10533 10531 10526 10526 10523 10522 10520 10518 10520 10514 10515 10525 10524 10510 10505 10499 10498 10497 10495 10491 10488 10486 10485 10482 10480 10477 10473 10471 10469 10466 10461 10455 10450 10446 10443 10439 10433 10426 10423 10418 10415
10520 10515 10513 10512 10508 10503 10500 10497 10494 10491 10497 10491 10494 10495 10489 10491 10488 10482 10477 10474 10471 10469 10467 10465 10463 10461 10458 10455 10452 10450 10449 10447 10444 10439 10433 10428 10424 10421 10416 10413 10406 10401 10398 10397
10497 10494 10490 10484 10483 10477 10473 10468 10466 10461 10469 10459 10470 10464 10467 10462 10458 10456 10453 10451 10446 10443 10441 10440 10439 10437 10435 10432 10430 10429 10428 10426 10424 10419 10414 10409 10406 10403 10397 10395 10389 10385 10380 10378
10470 10475 10469 10462 10457 10450 10448 10439 10438 10431 10434 10431 10435 10438 10436 10433 10429 10428 10425 10424 10420 10419 10418 10417 10415 10414 10413 10412 10409 10408 10408 10407 10405 10402 10398 10392 10389 10386 10381 10379 10375 10369 10366 10365
10440 10443 10442 10432 10423 10417 10419 10414 10413 10408 10405 10402 10405 10409 10405 10404 10404 10400 10398 10397 10396 10397 10397 10396 10394 10393 10391 10391 10390 10390 10390 10389 10388 10386 10382 10378 10373 10370 10366 10363 10360 10356 10353 10350
10412 10418 10415 10403 10394 10387 10389 10388 10389 10385 10383 10380 10377 10382 10380 10377 10378 10377 10376 10376 10377 10376 10376 10377 10376 10375 10374 10374 10374 10373 10372 10373 10373 10371 10370 10367 10361 10357 10354 10350 10347 10345 10344 10340
10389 10391 10387 10378 10373 10362 10366 10366 10367 10362 10360 10362 10358 10360 10355 10354 10357 10358 10357 10357 10355 10356 10357 10357 10358 10357 10357 10357 10358 10359 10360 10361 10360 10359 10356 10354 10348 10344 10340 10337 10335 10336 10334 10331
10365 10363 10359 10359 10351 10350 10348 10340 10338 10342 10343 10340 10342 10339 10335 10339 10343 10341 10340 10340 10340 10340 10342 10343 10344 10344 10344 10345 10348 10350 10351 10350 10350 10348 10343 10342 10339 10332 10329 10325 10324 10324 10324 10324
10341 10339 10336 10340 10334 10329 10328 10324 10323 10325 10324 10330 10323 10331 10320 10327 10327 10327 10326 10326 10328 10330 10331 10332 10334 10336 10338 10339 10341 10341 10341 10339 10338 10336 10333 10330 10326 10323 10319 10316 10314 10314 10315 10315
10320 10324 10324 10322 10314 10314 10312 10311 10313 10315 10314 10318 10315 10311 10317 10315 10315 10316 10316 10318 10319 10321 10324 10326 10329 10330 10331 10332 10332 10332 10330 10328 10325 10324 10322 10319 10315 10311 10310 10307 10305 10305 10305 10306
10309 10308 10309 10305 10301 10303 10299 10303 10307 10307 10307 10306 10307 10306 10306 10306 10306 10307 10310 10312 10315 10319 10321 10323 10325 10326 10325 10324 10323 10321 10319 10316 10313 10311 10310 10307 10305 10303 10299 10297 10295 10295 10296 10297
10294 10295 10296 10293 10294 10293 10293 10299 10299 10299 10299 10299 10301 10301 10301 10302 10303 10306 10309 10311 10314 10317 10319 10320 10319 10318 10317 10314 10312 10310 10307 10304 10301 10298 10296 10294 10292 10291 10290 10286 10286 10284 10285 10287
10284 10286 10287 10286 10287 10287 10290 10292 10292 10293 10295 10297 10299 10299 10301 10302 10304 10306 10309 10312 10313 10314 10314 10313 10311 10308 10306 10303 10300 10297 10294 10290 10286 10283 10280 10278 10278 10276 10275 10275 10273 10273 10273 10275
10275 10279 10279 10281 10280 10283 10285 10286 10288 10291 10293 10296 10298 10300 10301 10303 10304 10307 10307 10308 10309 10308 10307 10304 10301 10297 10294 10290 10285 10281 10277 10272 10269 10265 10263 10261 10260 10260 10259 10259 10260 10259 10260 10262
10269 10270 10272 10274 10275 10279 10281 10283 10286 10290 10293 10295 10297 10298 10300 10301 10302 10302 10302 10303 10302 10301 10298 10295 10290 10285 10280 10274 10269 10264 10258 10253 10248 10245 10243 10242 10241 10240 10241 10242 10243 10245 10246 10247
10262 10263 10266 10269 10272 10275 10278 10281 10285 10288 10291 10293 10295 10296 10298 10298 10298 10298 10298 10297 10295 10292 10289 10283 10277 10270 10264 10258 10251 10243 10237 10232 10228 10225 10223 10222 10221 10221 10222 10224 10225 10228 10231 10232
10256 10258 10261 10264 10267 10271 10274 10279 10282 10285 10288 10290 10292 10293 10293 10294 10294 10293 10292 10290 10287 10283 10277 10269 10264 10257 10249 10240 10232 10225 10218 10212 10208 10205 10203 10203 10203 10203 10204 10206 10207 10209 10213 10216
10249 10253 10256 10259 10263 10267 10271 10275 10278 10282 10285 10287 10288 10288 10289 10289 10288 10287 10284 10281 10277 10271 10266 10258 10251 10243 10235 10227 10218 10209 10201 10195 10191 10188 10186 10185 10185 10185 10186 10188 10190 10192 10194 10196
10246 10248 10252 10256 10261 10265 10269 10272 10276 10278 10281 10282 10283 10283 10284 10283 10282 10279 10277 10272 10266 10261 10255 10248 10239 10231 10222 10214 10206 10197 10190 10183 10179 10175 10172 10170 10169 10170 10171 10172 10174 10175 10176 10178
10242 10246 10250 10255 10260 10264 10267 10269 10272 10274 10276 10277 10278 10279 10278 10276 10274 10272 10268 10263 10257 10251 10244 10237 10228 10220 10211 10203 10196 10188 10181 10174 10169 10164 10161 10158 10156 10155 10155 10155 10156 10157 10158 10158